Regional Weather Roundup
Issued by NWS

Home | Current Version | Previous Version | Graphics & Text | Print | Product List | Glossary On
Versions: 1 2 3 4 5 6 7 8 9 10 11 12 13 14 15 16 17 18 19 20 21 22 23 24 25 26 27
000
ASUS45 KCYS 302010
RWRWY

WYOMING REGIONAL WEATHER ROUNDUP
NATIONAL WEATHER SERVICE CHEYENNE WY
200 PM MDT THU OCT 30 2014

NOTE:  "FAIR" INDICATES FEW OR NO CLOUDS BELOW 12,000 FEET
WITH NO SIGNIFICANT WEATHER AND/OR OBSTRUCTIONS TO VISIBILITY.

WYZ001-302100-
YELLOWSTONE NATIONAL PARK

CITY           SKY/WX    TMP DP  RH WIND       PRES   REMARKS
LK YELLOWSTONE   N/A     47  32  56 VRB3      30.38
W YELLOWSTONE  NOT AVBL

$$
WYZ002>013-054>058-071-098>099-302100-
NORTHERN WYOMING

CITY           SKY/WX    TMP DP  RH WIND       PRES   REMARKS
JACKSON        SUNNY     52  30  43 S5        30.33F
CODY           PTSUNNY   57  27  30 SE8       30.28F
GREYBULL       SUNNY     58  26  29 CALM      30.28F
WORLAND        SUNNY     59  27  29 N3        30.28F
SHERIDAN       SUNNY     61  28  28 VRB5      30.31F
BUFFALO        SUNNY     56  25  30 E5        30.34F
GILLETTE       SUNNY     57  29  34 N5        30.33S
HULETT         MOCLDY    55  32  41 N7        30.33
NEWCASTLE      FAIR      55  28  35 NW14G20   30.32

$$
WYZ014>020-022>026-101>103-302100-
CENTRAL WYOMING

CITY           SKY/WX    TMP DP  RH WIND       PRES   REMARKS
BIG PINEY      SUNNY     53  25  33 CALM      30.37F
PINEDALE       CLEAR     52  23  32 CALM      30.37F
DUBOIS         CLOUDY    57  23  26 NW8       30.31F
LANDER         SUNNY     56  28  34 VRB3      30.30F
RIVERTON       MOSUNNY   54  27  35 NE7       30.31F
CASPER         SUNNY     58  22  24 SE7       30.32F
DOUGLAS        SUNNY     59  27  29 NW3       30.33F

$$
WYZ021-027>030-104>119-302100-
SOUTHERN WYOMING

CITY           SKY/WX    TMP DP  RH WIND       PRES   REMARKS
EVANSTON       MOSUNNY   63  22  20 VRB3      30.32F
KEMMERER       CLEAR     57  27  30 S5        30.36F
FORT BRIDGER   FAIR      59  28  31 NE8       30.37F
ROCK SPRINGS   SUNNY     58  23  26 VRB3      30.34F
DIXON          FAIR      60  24  24 NW6       30.38S
RAWLINS        SUNNY     58  23  26 W9        30.35F
SARATOGA       FAIR      59  23  25 NW7       30.36F
LARAMIE        SUNNY     54  27  35 VRB3      30.36F
CHEYENNE       SUNNY     59  25  27 NW7       30.33F
TORRINGTON     SUNNY     61  28  28 CALM      30.30F
PINE BLUFFS    FAIR      57  28  33 N12       30.33F

$$



USA.gov is the U.S. government's official web portal to all federal, state and local government web resources and services.